Weather History for Fort Leonard Wood, MO

Change the Weather History Date:

Friday, October 21, 2011

  Actual Average Record
Temperature  
Mean Temperature 48 °F -  
Max Temperature 64 °F 66 °F 82 °F (2007)
Min Temperature 32 °F 48 °F 32 °F (2011)
Degree Days  
Heating Degree Days 18    
Moisture  
Dew Point 34 °F    
Average Humidity 67    
Maximum Humidity 96    
Minimum Humidity 33    
Precipitation  
Precipitation 0.00 in - - ()
Sea Level Pressure  
Sea Level Pressure 30.16 in    
Wind  
Wind Speed 3 mph (WSW)    
Max Wind Speed 9 mph    
Max Gust Speed -    
Visibility 10 miles    
Events      
Averages and records for this station are not official NWS values.
T = Trace of Precipitation, MM = Missing Value Source: NWS Daily Summary

Daily Weather History Graph

Daily Weather History Graph

Search for Another Location

Airport:

Trip Planner

Search our weather history database for the weather conditions in past years. The results will help you decide how hot, cold, wet, or windy it might be!

Date:

Astronomy

Oct. 21, 2011 Rise Set
Actual Time 7:22 AM CDT 6:23 PM CDT
Civil Twilight 6:55 AM CDT 6:49 PM CDT
Nautical Twilight 6:25 AM CDT 7:20 PM CDT
Astronomical Twilight 5:54 AM CDT 7:50 PM CDT
Moon 1:19 AM CDT (10/21) 3:02 PM CDT (10/21)
Length of Visible Light 11h 54m
Length of Day
11h 00m
Waning Crescent, 33% of the Moon is Illuminated
Oct 21
Waning Crescent
Oct 26
New
Nov 2
First Quarter
Nov 10
Full
Nov 18
Last Quarter

Hourly Weather History & Observations

Time (CDT) Temp. Windchill Dew Point Humidity Pressure Visibility Wind Dir Wind Speed Gust Speed Precip Events Conditions
12:55 AM 37.8 °F - 31.8 °F 79% 30.12 in 10.0 mi Calm Calm - N/A   Clear
1:55 AM 35.8 °F 33.0 °F 31.8 °F 86% 30.13 in 10.0 mi WSW 3.5 mph - N/A   Clear
2:55 AM 35.1 °F - 31.8 °F 88% 30.13 in 10.0 mi Calm Calm - N/A   Clear
3:55 AM 32.9 °F - 31.6 °F 95% 30.14 in 10.0 mi Calm Calm - N/A   Clear
4:55 AM 32.0 °F 28.7 °F 31.1 °F 96% 30.15 in 10.0 mi SW 3.5 mph - N/A   Clear
5:55 AM 32.9 °F 29.8 °F 31.1 °F 93% 30.16 in 10.0 mi SW 3.5 mph - N/A   Clear
6:55 AM 32.0 °F 27.5 °F 30.6 °F 94% 30.18 in 10.0 mi SW 4.6 mph - N/A   Clear
7:55 AM 33.6 °F 29.4 °F 30.9 °F 90% 30.20 in 10.0 mi SW 4.6 mph - N/A   Clear
8:55 AM 39.6 °F 36.3 °F 32.9 °F 77% 30.22 in 10.0 mi SW 4.6 mph - N/A   Clear
9:55 AM 46.2 °F 45.0 °F 34.2 °F 63% 30.23 in 10.0 mi Variable 3.5 mph - N/A   Clear
10:55 AM 52.3 °F - 32.4 °F 47% 30.22 in 10.0 mi NW 4.6 mph - N/A   Clear
11:55 AM 55.8 °F - 31.3 °F 39% 30.22 in 10.0 mi NNW 6.9 mph - N/A   Clear
12:55 PM 58.6 °F - 30.9 °F 35% 30.20 in 10.0 mi Variable 4.6 mph - N/A   Clear
1:55 PM 60.6 °F - 32.9 °F 35% 30.17 in 10.0 mi WNW 8.1 mph - N/A   Clear
2:55 PM 62.4 °F - 32.5 °F 33% 30.15 in 10.0 mi NW 9.2 mph - N/A   Clear
3:55 PM 63.9 °F - 33.8 °F 33% 30.14 in 9.0 mi Variable 6.9 mph - N/A   Clear
4:55 PM 63.5 °F - 34.5 °F 34% 30.14 in 10.0 mi SW 4.6 mph - N/A   Clear
5:55 PM 62.2 °F - 35.6 °F 37% 30.13 in 10.0 mi Calm Calm - N/A   Clear
6:55 PM 52.5 °F - 41.2 °F 65% 30.14 in 10.0 mi Calm Calm - N/A   Clear
7:55 PM 51.3 °F - 39.4 °F 64% 30.14 in 10.0 mi Calm Calm - N/A   Clear
8:55 PM 49.3 °F - 38.3 °F 66% 30.15 in 10.0 mi Calm Calm - N/A   Clear
9:55 PM 45.5 °F - 40.1 °F 81% 30.15 in 10.0 mi Calm Calm - N/A   Clear
10:55 PM 43.7 °F 42.1 °F 39.6 °F 85% 30.14 in 10.0 mi SE 3.5 mph - N/A   Clear
11:55 PM 42.6 °F 40.9 °F 39.6 °F 89% 30.13 in 10.0 mi SE 3.5 mph - N/A   Clear